[[{"header":{"parameterUnit":"m.s-1","parameterCategory":1,"la1":30.2991,"la2":30.254,"lo1":-89.0895,"lo2":-89.0444,"dy":0.0017,"dx":0.0017,"nx":28,"ny":28,"refTime":"2025-08-25T03:00:00:Z","depth":0,"parameterNumber":2,"parameterNumberName":"U-component_of_WINDS"},"data":[0,0,0,0,0,0,0,0,0,0,0,0,0,0,0,0,0,0,0,0,0,0,0,0,0,0,0,0,0,0,0,0,0,0,0,0,0,0,0,0,0,0,0,0,0,0,0,0,0,0,0,0,0,0,0,0,0,0,-0.1288,-0.1287,0,-0.1241,-0.1241,-0.124,-0.121,-0.121,-0.121,-0.121,-0.1162,-0.1161,-0.116,0,0,0,0,0,0,0,0,0,0,0,0,0,-0.1351,-0.135,-0.1288,-0.1287,-0.1286,-0.1241,-0.1241,-0.124,-0.121,-0.121,-0.121,-0.121,-0.1163,-0.1161,-0.116,0,0,0,0,0,0,0,0,0,0,0,0,0,-0.1316,-0.1349,-0.1288,-0.1266,-0.1264,-0.1241,-0.1241,-0.124,-0.121,-0.121,-0.121,-0.1209,-0.1163,-0.1162,-0.116,-0.1156,0,0,-0.1155,-0.1154,0,0,0,0,0,0,0,0,-0.1318,-0.1313,-0.127,-0.1268,-0.1265,-0.1231,-0.1246,-0.1212,-0.121,-0.1231,-0.121,-0.1209,-0.1185,-0.1182,-0.1174,-0.1153,-0.1151,-0.1155,-0.1154,-0.1153,-0.1153,0,0,0,0,0,0,0,-0.132,-0.1315,-0.1269,-0.1269,-0.1266,-0.1259,-0.1254,-0.1239,-0.121,-0.1229,-0.1227,-0.1221,-0.1184,-0.1176,-0.1173,-0.1151,-0.1155,-0.1153,-0.1152,-0.1152,-0.1124,-0.1125,0,0,0,0,0,0,-0.1326,-0.1318,-0.1271,-0.1268,-0.1291,-0.1258,-0.1252,-0.1242,-0.121,-0.1205,-0.1222,-0.122,-0.1178,-0.1175,-0.1171,-0.1164,-0.1153,-0.1152,-0.1151,-0.1124,-0.1125,-0.1125,0,0,0,0,0,0,-0.1327,-0.1322,-0.1273,-0.1292,-0.1285,-0.1257,-0.1246,-0.1242,-0.1233,-0.1205,-0.12,-0.1218,-0.1178,-0.1173,-0.116,-0.1162,-0.1151,-0.1149,-0.1124,-0.1124,-0.1125,-0.115,0,0,0,0,0,0,-0.1329,-0.1323,-0.1321,-0.1292,-0.1284,-0.1262,-0.1247,-0.1241,-0.123,-0.1228,-0.12,-0.1196,-0.1177,-0.1162,-0.1158,-0.1159,-0.1148,-0.1124,-0.1124,-0.1125,-0.1149,-0.1151,-0.1153,0,0,0,0,0,-0.1332,-0.133,-0.1321,-0.1315,-0.1281,-0.1262,-0.1258,-0.1237,-0.1231,-0.1228,-0.121,-0.1196,-0.1162,-0.1161,-0.1156,-0.1157,-0.1123,-0.1124,-0.1125,-0.1148,-0.1151,-0.1153,0,0,0,0,0,0,-0.1359,-0.1326,-0.1315,-0.1304,-0.1286,-0.1257,-0.1254,-0.1241,-0.1225,-0.1223,-0.1198,-0.1192,-0.1181,-0.1168,-0.1167,-0.1151,-0.1141,-0.1141,-0.1161,-0.1163,-0.1165,-0.1169,-0.1147,0,0,0,0,0,-0.1364,-0.1351,-0.1323,-0.1315,-0.1307,-0.1282,-0.1273,-0.1259,-0.124,-0.1232,-0.1213,-0.1195,-0.118,-0.1171,-0.1155,-0.1147,-0.114,-0.1145,-0.1147,-0.1149,-0.1149,-0.1144,-0.1146,-0.1127,-0.1127,-0.1127,0,0,-0.1374,-0.1354,-0.1347,-0.132,-0.1305,-0.1293,-0.1276,-0.1264,-0.1255,-0.123,-0.1216,-0.1202,-0.118,-0.1169,-0.1163,-0.1157,-0.1153,-0.115,-0.1151,-0.115,-0.1145,-0.1146,-0.1148,-0.1127,-0.1127,-0.1127,0,0,-0.1385,-0.1368,-0.1361,-0.1346,-0.1323,-0.1306,-0.1304,-0.1278,-0.1267,-0.1253,-0.1234,-0.1223,-0.1198,-0.1183,-0.1172,-0.1179,-0.1165,-0.1174,-0.1186,-0.1181,-0.1183,-0.1184,-0.1187,-0.1188,-0.1175,-0.1175,-0.1175,0,-0.14,-0.1381,-0.1359,-0.1347,-0.1336,-0.1314,-0.1306,-0.1292,-0.1266,-0.1259,-0.1252,-0.1221,-0.1204,-0.119,-0.1192,-0.1183,-0.1181,-0.1178,-0.1184,-0.1185,-0.1186,-0.1188,-0.1189,-0.1176,-0.1176,-0.1176,-0.1176,0,-0.14,-0.1387,-0.1384,-0.1359,-0.1347,-0.1338,-0.1315,-0.1306,-0.1292,-0.1277,-0.1263,-0.1242,-0.1223,-0.1218,-0.1205,-0.1202,-0.1199,-0.1189,-0.1178,-0.1189,-0.1191,-0.1192,-0.1178,-0.1177,-0.1177,-0.1177,0,0,-0.1428,-0.1391,-0.139,-0.1378,-0.1351,-0.1341,-0.1331,-0.1312,-0.1305,-0.1287,-0.1278,-0.1258,-0.1248,-0.1236,-0.1221,-0.1217,-0.1224,-0.1207,-0.1206,-0.1211,-0.1219,-0.1228,-0.1229,-0.1214,-0.1215,-0.1215,-0.1221,0,-0.1436,-0.1416,-0.1396,-0.1384,-0.1372,-0.135,-0.1341,-0.1324,-0.1309,-0.1296,-0.128,-0.1266,-0.1254,-0.1247,-0.1242,-0.1224,-0.1225,-0.1223,-0.1206,-0.1206,-0.1213,-0.123,-0.1238,-0.1246,-0.1222,-0.1222,-0.1222,0,-0.1442,-0.1426,-0.1412,-0.1387,-0.1381,-0.1373,-0.1354,-0.1343,-0.1323,-0.1312,-0.1299,-0.1283,-0.1271,-0.1262,-0.1246,-0.1245,-0.1237,-0.1227,-0.1227,-0.1225,-0.1215,-0.1228,-0.1247,-0.1249,-0.1223,-0.1223,-0.1223,0,-0.1464,-0.1438,-0.1427,-0.1418,-0.1388,-0.1383,-0.137,-0.135,-0.134,-0.1323,-0.1317,-0.1299,-0.1289,-0.1276,-0.1256,-0.1251,-0.1242,-0.1231,-0.1233,-0.1234,-0.1233,-0.1233,-0.1251,-0.1227,-0.1227,-0.1227,-0.1227,0,-0.1475,-0.1468,-0.1437,-0.143,-0.1421,-0.1398,-0.139,-0.1375,-0.1358,-0.1348,-0.1328,-0.1319,-0.1292,-0.1281,-0.1265,-0.1254,-0.125,-0.1241,-0.1237,-0.1243,-0.1244,-0.1238,-0.1237,-0.1227,-0.1227,-0.1227,-0.1227,0,-0.1498,-0.1477,-0.1464,-0.1436,-0.1429,-0.1424,-0.1401,-0.1393,-0.1377,-0.1365,-0.1361,-0.1335,-0.132,-0.1299,-0.1277,-0.1266,-0.1258,-0.1251,-0.1265,-0.1263,-0.1267,-0.1267,-0.1281,-0.1282,-0.1257,-0.1257,-0.1258,0,-0.1507,-0.1501,-0.1473,-0.1465,-0.1453,-0.144,-0.143,-0.1407,-0.1397,-0.1374,-0.1369,-0.1353,-0.1338,-0.1315,-0.1295,-0.1278,-0.1271,-0.1277,-0.1269,-0.1275,-0.1272,-0.1273,-0.1272,-0.128,-0.128,-0.1281,-0.1281,0,-0.1525,-0.1515,-0.1501,-0.1483,-0.1471,-0.1456,-0.144,-0.1435,-0.1409,-0.1399,-0.1383,-0.1372,-0.135,-0.1334,-0.1314,-0.1301,-0.1287,-0.1284,-0.1283,-0.129,-0.1298,-0.1294,-0.1271,-0.1284,-0.1283,-0.1283,-0.1283,-0.1283,-0.1541,-0.1535,-0.1515,-0.15,-0.1485,-0.1471,-0.1463,-0.1446,-0.1432,-0.1413,-0.14,-0.1385,-0.1365,-0.1338,-0.1325,-0.1314,-0.1308,-0.1307,-0.1307,-0.1308,-0.131,-0.13,-0.131,-0.131,-0.131,-0.131,-0.131,0,-0.1559,-0.1545,-0.1531,-0.1509,-0.1498,-0.1485,-0.1467,-0.1458,-0.1445,-0.1428,-0.1414,-0.1396,-0.1381,-0.1359,-0.1342,-0.1337,-0.133,-0.1333,-0.1333,-0.1331,-0.1316,-0.1318,-0.1339,-0.1339,-0.1339,-0.1339,-0.1339,-0.1339,-0.1567,-0.1555,-0.1543,-0.1525,-0.151,-0.1496,-0.1486,-0.1473,-0.1459,-0.144,-0.1427,-0.1413,-0.1394,-0.1376,-0.1361,-0.1355,-0.135,-0.1355,-0.1348,-0.1334,-0.1332,-0.1329,-0.1331,-0.1354,-0.1354,-0.1363,-0.1363,-0.1363]},{"header":{"parameterUnit":"m.s-1","parameterCategory":1,"la1":30.2991,"la2":30.254,"lo1":-89.0895,"lo2":-89.0444,"dy":0.0017,"dx":0.0017,"nx":28,"ny":28,"refTime":"2025-08-25T03:00:00:Z","depth":0,"parameterNumber":3,"parameterNumberName":"V-component_of_WINDS"},"data":[0,0,0,0,0,0,0,0,0,0,0,0,0,0,0,0,0,0,0,0,0,0,0,0,0,0,0,0,0,0,0,0,0,0,0,0,0,0,0,0,0,0,0,0,0,0,0,0,0,0,0,0,0,0,0,0,0,0,2.0777,2.0777,0,2.0781,2.0781,2.0781,2.0735,2.0734,2.0732,2.0731,2.0735,2.0736,2.0737,0,0,0,0,0,0,0,0,0,0,0,0,0,2.073,2.0731,2.0777,2.0777,2.0777,2.0781,2.0781,2.0781,2.0735,2.0734,2.0732,2.0731,2.0734,2.0736,2.0737,0,0,0,0,0,0,0,0,0,0,0,0,0,2.0744,2.0731,2.0777,2.0755,2.0753,2.0781,2.0781,2.0781,2.0735,2.0733,2.0732,2.073,2.0734,2.0736,2.0738,2.0787,0,0,2.0743,2.0744,0,0,0,0,0,0,0,0,2.0743,2.0745,2.0758,2.0756,2.0754,2.0755,2.0765,2.0783,2.0736,2.0742,2.0731,2.0729,2.0743,2.0744,2.0749,2.0787,2.0787,2.0744,2.0745,2.0746,2.0746,0,0,0,0,0,0,0,2.0742,2.0745,2.0778,2.0758,2.0756,2.0744,2.0744,2.0769,2.0753,2.0741,2.0738,2.0739,2.0742,2.0747,2.0749,2.0788,2.0744,2.0745,2.0746,2.0747,2.0866,2.0868,0,0,0,0,0,0,2.0744,2.0744,2.0778,2.0779,2.0744,2.0747,2.0747,2.0757,2.0753,2.075,2.0741,2.0737,2.0745,2.0747,2.0749,2.0806,2.0746,2.0747,2.0748,2.0864,2.0866,2.0868,0,0,0,0,0,0,2.0743,2.0747,2.0778,2.0761,2.0764,2.075,2.0762,2.0758,2.0763,2.0752,2.0749,2.0749,2.0744,2.0746,2.0778,2.0805,2.0748,2.075,2.0861,2.0864,2.0867,2.0921,0,0,0,0,0,0,2.0742,2.0747,2.0766,2.0761,2.0765,2.0808,2.0763,2.0759,2.0767,2.0762,2.0759,2.0757,2.0742,2.0775,2.078,2.0807,2.0751,2.0859,2.0863,2.0866,2.0916,2.0925,2.0933,0,0,0,0,0,2.074,2.0781,2.0768,2.0772,2.0788,2.0809,2.0811,2.0793,2.0769,2.0788,2.0781,2.0757,2.0802,2.0779,2.0783,2.0812,2.0857,2.0862,2.0866,2.0913,2.0923,2.0932,0,0,0,0,0,0,2.079,2.078,2.0765,2.0805,2.0809,2.0801,2.0824,2.0805,2.0815,2.081,2.0787,2.0787,2.0822,2.082,2.0795,2.0859,2.0825,2.0831,2.0859,2.0869,2.0877,2.0877,2.0753,0,0,0,0,0,2.0806,2.0824,2.0814,2.0851,2.0853,2.0839,2.0847,2.0833,2.0835,2.0836,2.0831,2.0834,2.0849,2.0859,2.0872,2.0916,2.0914,2.0938,2.0946,2.0952,2.0957,2.098,2.099,2.0883,2.0883,2.0883,0,0,2.0838,2.0835,2.0848,2.0861,2.0862,2.088,2.084,2.0862,2.0876,2.084,2.0869,2.0866,2.0867,2.0906,2.0922,2.0905,2.0987,2.0958,2.0964,2.0965,2.0986,2.0996,2.1005,2.0886,2.0886,2.0885,0,0,2.0907,2.0907,2.0937,2.0938,2.094,2.093,2.0937,2.0933,2.0929,2.0958,2.0931,2.0947,2.0973,2.0975,2.098,2.1049,2.1027,2.1054,2.1096,2.1118,2.1126,2.1134,2.1158,2.1167,2.1059,2.1059,2.1059,0,2.0947,2.0975,2.0955,2.0978,2.0985,2.0953,2.0983,2.0985,2.0991,2.0996,2.0976,2.1007,2.1007,2.1044,2.1061,2.1066,2.1073,2.1054,2.1127,2.1134,2.1141,2.1163,2.1172,2.1062,2.1062,2.1061,2.1061,0,2.1024,2.1043,2.1067,2.1073,2.1082,2.1109,2.1093,2.1104,2.1089,2.1081,2.1111,2.1109,2.112,2.1128,2.1114,2.1164,2.1153,2.1131,2.1096,2.1154,2.1175,2.1184,2.1066,2.1065,2.1064,2.1064,0,0,2.1124,2.1118,2.1127,2.1129,2.1128,2.1143,2.1168,2.1179,2.1189,2.1194,2.1214,2.1236,2.1215,2.1221,2.1206,2.1226,2.128,2.1201,2.1201,2.1215,2.1334,2.135,2.1361,2.1266,2.1268,2.1269,2.1333,0,2.119,2.1233,2.1215,2.1259,2.1276,2.1246,2.1268,2.127,2.1263,2.1276,2.1269,2.1285,2.1256,2.1259,2.1277,2.127,2.1303,2.1265,2.1284,2.1285,2.1284,2.1372,2.1389,2.145,2.1342,2.1343,2.1344,0,2.1273,2.1281,2.1327,2.1322,2.1329,2.1349,2.1357,2.137,2.1372,2.1365,2.1371,2.1352,2.1376,2.1342,2.1374,2.1348,2.1355,2.1353,2.1355,2.1355,2.1318,2.1374,2.1469,2.1478,2.1357,2.1356,2.1355,0,2.1341,2.1363,2.1393,2.1396,2.1391,2.1406,2.1404,2.1404,2.1411,2.1419,2.1423,2.1433,2.1439,2.1447,2.1431,2.1408,2.1466,2.1431,2.1461,2.1461,2.1474,2.1473,2.1571,2.1479,2.1479,2.1479,2.1479,0,2.1416,2.1445,2.1423,2.1441,2.1473,2.1452,2.1484,2.1479,2.1479,2.1495,2.147,2.1486,2.1465,2.1479,2.1467,2.1495,2.1498,2.1493,2.149,2.1495,2.1496,2.1499,2.1494,2.1482,2.1481,2.1481,2.148,0,2.1497,2.1483,2.1514,2.1507,2.1506,2.1529,2.1523,2.1539,2.1531,2.1552,2.1556,2.1542,2.1557,2.1543,2.1557,2.1549,2.1587,2.1577,2.1586,2.1583,2.1614,2.1611,2.1717,2.1729,2.1631,2.1632,2.1632,0,2.1546,2.1567,2.1562,2.1571,2.1572,2.1587,2.1594,2.1575,2.1584,2.1587,2.1603,2.1616,2.1625,2.1651,2.1642,2.1653,2.1643,2.1679,2.1644,2.1649,2.1643,2.1641,2.1643,2.1686,2.1687,2.1688,2.1689,0,2.1633,2.1625,2.1637,2.1646,2.1656,2.1662,2.1666,2.1675,2.1655,2.1666,2.1682,2.1689,2.1703,2.1716,2.1725,2.1723,2.1703,2.17,2.1708,2.1713,2.1717,2.1715,2.1605,2.1698,2.1697,2.1696,2.1696,2.1695,2.1699,2.1716,2.1715,2.1729,2.173,2.1735,2.1749,2.1742,2.1755,2.1765,2.1753,2.1771,2.1771,2.178,2.1781,2.1795,2.1779,2.179,2.1793,2.1796,2.18,2.1716,2.1796,2.1796,2.1796,2.1795,2.1795,0,2.1785,2.1782,2.1795,2.1802,2.1812,2.1792,2.1796,2.1806,2.1822,2.1824,2.1834,2.1851,2.1863,2.1856,2.1866,2.1879,2.187,2.1882,2.1881,2.188,2.1813,2.1805,2.1889,2.1889,2.1889,2.1889,2.1889,2.1889,2.183,2.1858,2.185,2.1878,2.1876,2.1893,2.1897,2.1901,2.1902,2.1922,2.1932,2.1927,2.1925,2.1935,2.1945,2.1943,2.1947,2.1963,2.1957,2.1895,2.1885,2.1876,2.1869,2.1965,2.1965,2.2023,2.2024,2.2024]}]]